Time,TemperatureF,DewpointF,PressureIn,WindDirection,WindDirectionDegrees,WindSpeedMPH,WindSpeedGustMPH,Humidity,HourlyPrecipIn,Conditions,Clouds,dailyrainin,SoftwareType,DateUTC
2013-03-01 00:03:00,32.9,38.3,29.60,North,6,3.0,4.0,33,0.00,,,0.00,meteohub,2013-03-01 06:03:00,
2013-03-01 00:08:00,32.9,37.4,29.60,North,357,4.0,4.0,32,0.00,,,0.00,meteohub,2013-03-01 06:08:00,
2013-03-01 00:13:00,32.9,37.2,29.60,NW,322,2.0,4.0,32,0.00,,,0.00,meteohub,2013-03-01 06:13:00,
2013-03-01 00:18:00,32.7,37.0,29.60,WNW,287,5.0,5.0,32,0.00,,,0.00,meteohub,2013-03-01 06:18:00,
2013-03-01 00:23:00,32.7,37.6,29.60,NNW,335,2.0,5.0,33,0.00,,,0.00,meteohub,2013-03-01 06:23:00,
2013-03-01 00:28:00,32.7,37.6,29.60,NNW,332,3.0,5.0,33,0.00,,,0.00,meteohub,2013-03-01 06:28:00,
2013-03-01 00:33:00,32.7,37.6,29.60,North,357,3.0,5.0,33,0.00,,,0.00,meteohub,2013-03-01 06:33:00,
2013-03-01 00:38:00,32.9,37.4,29.60,NW,311,3.0,5.0,33,0.00,,,0.00,meteohub,2013-03-01 06:38:00,
2013-03-01 00:43:00,32.7,37.2,29.60,North,357,3.0,6.0,33,0.00,,,0.00,meteohub,2013-03-01 06:43:00,
2013-03-01 00:49:00,32.9,37.2,29.60,North,4,3.0,7.0,33,0.00,,,0.00,meteohub,2013-03-01 06:49:00,
2013-03-01 00:54:00,32.9,37.0,29.60,NNW,330,2.0,7.0,33,0.00,,,0.00,meteohub,2013-03-01 06:54:00,
2013-03-01 00:59:00,32.9,37.0,29.60,NNW,342,2.0,7.0,33,0.00,,,0.00,meteohub,2013-03-01 06:59:00,
2013-03-01 01:04:00,32.9,36.9,29.60,NW,320,3.0,6.0,33,0.00,,,0.00,meteohub,2013-03-01 07:04:00,
2013-03-01 01:09:00,32.9,36.9,29.60,NW,320,3.0,6.0,33,0.00,,,0.00,meteohub,2013-03-01 07:09:00,
2013-03-01 01:14:00,32.7,36.7,29.60,NNW,337,3.0,6.0,33,0.00,,,0.00,meteohub,2013-03-01 07:14:00,
2013-03-01 01:19:00,32.7,36.7,29.60,North,0,3.0,6.0,33,0.00,,,0.00,meteohub,2013-03-01 07:19:00,
2013-03-01 01:24:00,32.7,36.5,29.60,NNE,13,4.0,6.0,33,0.00,,,0.00,meteohub,2013-03-01 07:24:00,
2013-03-01 01:29:00,32.7,36.5,29.60,North,5,4.0,6.0,33,0.00,,,0.00,meteohub,2013-03-01 07:29:00,
2013-03-01 01:35:00,32.7,36.3,29.60,NNW,343,3.0,6.0,33,0.00,,,0.00,meteohub,2013-03-01 07:35:00,
2013-03-01 01:40:00,32.7,36.3,29.60,NW,311,6.0,6.0,33,0.00,,,0.00,meteohub,2013-03-01 07:40:00,
2013-03-01 01:45:00,32.7,36.3,29.60,NW,311,3.0,6.0,33,0.00,,,0.00,meteohub,2013-03-01 07:45:00,
2013-03-01 01:50:00,32.7,36.3,29.60,NNW,348,5.0,6.0,33,0.00,,,0.00,meteohub,2013-03-01 07:50:00,
2013-03-01 01:55:00,32.7,36.1,29.60,NW,324,0.0,6.0,33,0.00,,,0.00,meteohub,2013-03-01 07:55:00,
2013-03-01 02:00:00,32.5,36.1,29.60,NNW,340,3.0,6.0,33,0.00,,,0.00,meteohub,2013-03-01 08:00:00,
2013-03-01 02:05:00,32.5,36.0,29.60,NW,316,3.0,6.0,33,0.00,,,0.00,meteohub,2013-03-01 08:05:00,
2013-03-01 02:10:00,32.5,36.0,29.60,West,276,5.0,6.0,33,0.00,,,0.00,meteohub,2013-03-01 08:10:00,
2013-03-01 02:15:00,32.5,36.0,29.60,NW,324,3.0,6.0,33,0.00,,,0.00,meteohub,2013-03-01 08:15:00,
2013-03-01 02:20:00,32.4,35.8,29.60,NW,308,4.0,6.0,33,0.00,,,0.00,meteohub,2013-03-01 08:20:00,
2013-03-01 02:25:00,32.4,35.8,29.60,NNW,327,3.0,6.0,33,0.00,,,0.00,meteohub,2013-03-01 08:25:00,
2013-03-01 02:31:00,32.4,35.6,29.60,NW,309,3.0,6.0,33,0.00,,,0.00,meteohub,2013-03-01 08:31:00,
2013-03-01 02:36:00,32.2,35.6,29.60,NNW,341,5.0,6.0,33,0.00,,,0.00,meteohub,2013-03-01 08:36:00,
2013-03-01 02:41:00,32.2,35.4,29.60,NW,317,4.0,5.0,33,0.00,,,0.00,meteohub,2013-03-01 08:41:00,
2013-03-01 02:46:00,32.2,35.6,29.60,North,0,4.0,5.0,33,0.00,,,0.00,meteohub,2013-03-01 08:46:00,
2013-03-01 02:51:00,32.2,36.3,29.57,WNW,301,3.0,5.0,33,0.00,,,0.00,meteohub,2013-03-01 08:51:00,
2013-03-01 02:56:00,32.2,37.2,29.57,North,357,3.0,6.0,33,0.00,,,0.00,meteohub,2013-03-01 08:56:00,
2013-03-01 03:01:00,32.2,37.2,29.57,NNW,338,0.0,6.0,33,0.00,,,0.00,meteohub,2013-03-01 09:01:00,
2013-03-01 03:06:00,32.0,36.9,29.57,WNW,299,0.0,6.0,33,0.00,,,0.00,meteohub,2013-03-01 09:06:00,
2013-03-01 03:11:00,32.0,36.5,29.57,NW,317,0.0,5.0,33,0.00,,,0.00,meteohub,2013-03-01 09:11:00,
2013-03-01 03:17:00,32.0,36.3,29.57,North,353,3.0,4.0,33,0.00,,,0.00,meteohub,2013-03-01 09:17:00,
2013-03-01 03:22:00,32.0,36.3,29.57,North,353,0.0,4.0,33,0.00,,,0.00,meteohub,2013-03-01 09:22:00,
2013-03-01 03:27:00,31.8,36.1,29.57,WNW,286,3.0,4.0,33,0.00,,,0.00,meteohub,2013-03-01 09:27:00,
2013-03-01 03:32:00,31.8,36.0,29.57,NW,310,0.0,4.0,33,0.00,,,0.00,meteohub,2013-03-01 09:32:00,
2013-03-01 03:37:00,31.8,35.8,29.57,NW,311,3.0,3.0,33,0.00,,,0.00,meteohub,2013-03-01 09:37:00,
2013-03-01 03:42:00,31.6,35.6,29.57,NW,306,0.0,4.0,33,0.00,,,0.00,meteohub,2013-03-01 09:42:00,
2013-03-01 03:47:00,31.6,35.4,29.57,WNW,301,2.0,4.0,33,0.00,,,0.00,meteohub,2013-03-01 09:47:00,
2013-03-01 03:52:00,31.5,35.4,29.57,NW,323,3.0,4.0,33,0.00,,,0.00,meteohub,2013-03-01 09:52:00,
2013-03-01 03:57:00,31.5,35.2,29.57,NW,310,2.0,4.0,33,0.00,,,0.00,meteohub,2013-03-01 09:57:00,
2013-03-01 04:03:00,31.5,35.2,29.57,WNW,301,0.0,4.0,33,0.00,,,0.00,meteohub,2013-03-01 10:03:00,
2013-03-01 04:08:00,31.5,35.1,29.57,WNW,301,0.0,5.0,33,0.00,,,0.00,meteohub,2013-03-01 10:08:00,
2013-03-01 04:13:00,31.3,35.1,29.57,WNW,301,0.0,5.0,33,0.00,,,0.00,meteohub,2013-03-01 10:13:00,
2013-03-01 04:18:00,31.3,34.9,29.57,NNW,336,0.0,2.0,33,0.00,,,0.00,meteohub,2013-03-01 10:18:00,
2013-03-01 04:23:00,31.3,34.9,29.57,NW,317,0.0,4.0,33,0.00,,,0.00,meteohub,2013-03-01 10:23:00,
2013-03-01 04:28:00,31.3,34.7,29.57,NNW,330,0.0,4.0,33,0.00,,,0.00,meteohub,2013-03-01 10:28:00,
2013-03-01 04:33:00,31.3,34.7,29.57,WSW,244,0.0,3.0,33,0.00,,,0.00,meteohub,2013-03-01 10:33:00,
2013-03-01 04:38:00,31.3,35.2,29.57,NW,307,3.0,4.0,34,0.00,,,0.00,meteohub,2013-03-01 10:38:00,
2013-03-01 04:43:00,31.3,35.2,29.57,NNW,341,0.0,4.0,34,0.00,,,0.00,meteohub,2013-03-01 10:43:00,
2013-03-01 04:49:00,31.3,35.1,29.60,WNW,295,0.0,4.0,34,0.00,,,0.00,meteohub,2013-03-01 10:49:00,
2013-03-01 04:54:00,31.1,35.1,29.60,WNW,287,0.0,4.0,34,0.00,,,0.00,meteohub,2013-03-01 10:54:00,
2013-03-01 04:59:00,31.1,34.9,29.60,NNW,328,0.0,4.0,34,0.00,,,0.00,meteohub,2013-03-01 10:59:00,
2013-03-01 05:04:00,31.1,34.9,29.60,North,353,0.0,4.0,34,0.00,,,0.00,meteohub,2013-03-01 11:04:00,
2013-03-01 05:09:00,31.1,34.7,29.60,NNW,332,2.0,4.0,34,0.00,,,0.00,meteohub,2013-03-01 11:09:00,
2013-03-01 05:14:00,31.1,34.7,29.60,NW,318,3.0,4.0,34,0.00,,,0.00,meteohub,2013-03-01 11:14:00,
2013-03-01 05:19:00,31.1,34.7,29.60,North,0,3.0,4.0,34,0.00,,,0.00,meteohub,2013-03-01 11:19:00,
2013-03-01 05:24:00,31.1,33.8,29.60,NNW,348,0.0,4.0,33,0.00,,,0.00,meteohub,2013-03-01 11:24:00,
2013-03-01 05:30:00,31.1,33.8,29.60,North,353,2.0,5.0,33,0.00,,,0.00,meteohub,2013-03-01 11:30:00,
2013-03-01 05:35:00,30.9,33.8,29.60,NW,308,3.0,5.0,33,0.00,,,0.00,meteohub,2013-03-01 11:35:00,
2013-03-01 05:40:00,30.9,33.6,29.60,WNW,302,3.0,5.0,33,0.00,,,0.00,meteohub,2013-03-01 11:40:00,
2013-03-01 05:45:00,30.9,33.6,29.60,NNW,329,0.0,5.0,33,0.00,,,0.00,meteohub,2013-03-01 11:45:00,
2013-03-01 05:50:00,30.9,33.4,29.60,North,0,0.0,5.0,33,0.00,,,0.00,meteohub,2013-03-01 11:50:00,
2013-03-01 05:55:00,30.9,33.4,29.60,NW,316,0.0,5.0,33,0.00,,,0.00,meteohub,2013-03-01 11:55:00,
2013-03-01 06:01:00,30.9,33.4,29.60,NNW,331,0.0,5.0,33,0.00,,,0.00,meteohub,2013-03-01 12:01:00,
2013-03-01 06:06:00,30.7,33.3,29.60,North,353,0.0,4.0,33,0.00,,,0.00,meteohub,2013-03-01 12:06:00,
2013-03-01 06:11:00,30.7,33.3,29.60,NW,307,3.0,4.0,33,0.00,,,0.00,meteohub,2013-03-01 12:11:00,
2013-03-01 06:16:00,30.7,33.1,29.60,NW,308,3.0,4.0,33,0.00,,,0.00,meteohub,2013-03-01 12:16:00,
2013-03-01 06:21:00,30.7,33.1,29.60,West,272,0.0,4.0,33,0.00,,,0.00,meteohub,2013-03-01 12:21:00,
2013-03-01 06:26:00,30.7,33.6,29.60,WNW,293,3.0,5.0,34,0.00,,,0.00,meteohub,2013-03-01 12:26:00,
2013-03-01 06:31:00,30.7,33.6,29.60,NW,305,4.0,5.0,34,0.00,,,0.00,meteohub,2013-03-01 12:31:00,
2013-03-01 06:36:00,30.7,33.6,29.60,NW,311,3.0,4.0,34,0.00,,,0.00,meteohub,2013-03-01 12:36:00,
2013-03-01 06:41:00,30.6,34.5,29.60,NW,313,4.0,4.0,34,0.00,,,0.00,meteohub,2013-03-01 12:41:00,
2013-03-01 06:46:00,30.6,35.1,29.60,NW,316,3.0,4.0,33,0.00,,,0.00,meteohub,2013-03-01 12:46:00,
2013-03-01 06:51:00,30.6,36.9,29.60,NNW,348,2.0,4.0,34,0.00,,,0.00,meteohub,2013-03-01 12:51:00,
2013-03-01 06:57:00,30.6,36.5,29.60,NNW,346,0.0,4.0,33,0.00,,,0.00,meteohub,2013-03-01 12:57:00,
2013-03-01 07:02:00,30.6,36.3,29.60,NNW,338,0.0,6.0,33,0.00,,,0.00,meteohub,2013-03-01 13:02:00,
2013-03-01 07:07:00,30.6,36.5,29.60,NNW,341,3.0,6.0,33,0.00,,,0.00,meteohub,2013-03-01 13:07:00,
2013-03-01 07:12:00,30.6,36.9,29.60,NW,326,3.0,6.0,33,0.00,,,0.00,meteohub,2013-03-01 13:12:00,
2013-03-01 07:17:00,30.6,36.7,29.60,WNW,289,0.0,4.0,33,0.00,,,0.00,meteohub,2013-03-01 13:17:00,
2013-03-01 07:22:00,30.7,37.2,29.60,WNW,302,4.0,4.0,33,0.00,,,0.00,meteohub,2013-03-01 13:22:00,
2013-03-01 07:27:00,30.7,37.2,29.60,NW,315,0.0,4.0,33,0.00,,,0.00,meteohub,2013-03-01 13:27:00,
2013-03-01 07:32:00,30.9,37.0,29.60,NW,318,3.0,4.0,33,0.00,,,0.00,meteohub,2013-03-01 13:32:00,
2013-03-01 07:37:00,30.9,36.9,29.60,NNW,333,4.0,4.0,33,0.00,,,0.00,meteohub,2013-03-01 13:37:00,
2013-03-01 07:42:00,30.7,37.2,29.60,NNW,329,5.0,5.0,33,0.00,,,0.00,meteohub,2013-03-01 13:42:00,
2013-03-01 07:47:00,30.7,37.2,29.60,NW,304,4.0,4.0,33,0.00,,,0.00,meteohub,2013-03-01 13:47:00,
2013-03-01 07:53:00,30.6,36.9,29.60,NNW,333,4.0,5.0,33,0.00,,,0.00,meteohub,2013-03-01 13:53:00,
2013-03-01 07:58:00,30.6,36.7,29.60,WNW,303,0.0,6.0,33,0.00,,,0.00,meteohub,2013-03-01 13:58:00,
2013-03-01 08:03:00,30.7,36.7,29.63,NNW,334,3.0,6.0,33,0.00,,,0.00,meteohub,2013-03-01 14:03:00,
2013-03-01 08:08:00,30.9,36.7,29.63,NW,326,3.0,6.0,33,0.00,,,0.00,meteohub,2013-03-01 14:08:00,
2013-03-01 08:13:00,30.9,36.7,29.63,North,353,4.0,5.0,33,0.00,,,0.00,meteohub,2013-03-01 14:13:00,
2013-03-01 08:18:00,30.9,36.5,29.63,North,0,3.0,5.0,33,0.00,,,0.00,meteohub,2013-03-01 14:18:00,
2013-03-01 08:23:00,31.1,36.3,29.63,NNW,331,3.0,6.0,33,0.00,,,0.00,meteohub,2013-03-01 14:23:00,
2013-03-01 08:28:00,31.3,36.1,29.63,WNW,285,3.0,6.0,33,0.00,,,0.00,meteohub,2013-03-01 14:28:00,
2013-03-01 08:33:00,31.5,36.3,29.63,NW,318,5.0,5.0,33,0.00,,,0.00,meteohub,2013-03-01 14:33:00,
2013-03-01 08:38:00,31.6,36.5,29.63,North,2,4.0,5.0,33,0.00,,,0.00,meteohub,2013-03-01 14:38:00,
2013-03-01 08:43:00,31.6,36.5,29.63,NNW,329,3.0,5.0,33,0.00,,,0.00,meteohub,2013-03-01 14:43:00,
2013-03-01 08:48:00,31.8,36.3,29.63,North,353,0.0,5.0,33,0.00,,,0.00,meteohub,2013-03-01 14:48:00,
2013-03-01 08:53:00,32.0,36.7,29.63,NNW,346,3.0,5.0,33,0.00,,,0.00,meteohub,2013-03-01 14:53:00,
2013-03-01 08:59:00,32.0,36.7,29.63,North,9,4.0,6.0,33,0.00,,,0.00,meteohub,2013-03-01 14:59:00,
2013-03-01 09:04:00,32.0,36.5,29.63,NNW,335,0.0,6.0,33,0.00,,,0.00,meteohub,2013-03-01 15:04:00,
2013-03-01 09:09:00,32.0,36.3,29.63,NW,312,4.0,6.0,33,0.00,,,0.00,meteohub,2013-03-01 15:09:00,
2013-03-01 09:14:00,32.2,36.3,29.63,NNW,332,0.0,5.0,33,0.00,,,0.00,meteohub,2013-03-01 15:14:00,
2013-03-01 09:19:00,32.4,36.1,29.63,North,357,6.0,6.0,33,0.00,,,0.00,meteohub,2013-03-01 15:19:00,
2013-03-01 09:24:00,32.2,36.1,29.63,NNW,337,3.0,6.0,33,0.00,,,0.00,meteohub,2013-03-01 15:24:00,
2013-03-01 09:29:00,32.4,36.0,29.63,North,353,5.0,6.0,33,0.00,,,0.00,meteohub,2013-03-01 15:29:00,
2013-03-01 09:34:00,32.4,35.8,29.63,North,9,3.0,6.0,33,0.00,,,0.00,meteohub,2013-03-01 15:34:00,
2013-03-01 09:39:00,32.4,35.8,29.63,North,357,3.0,6.0,33,0.00,,,0.00,meteohub,2013-03-01 15:39:00,
2013-03-01 09:44:00,32.4,36.1,29.63,NNW,340,4.0,6.0,33,0.00,,,0.00,meteohub,2013-03-01 15:44:00,
2013-03-01 09:49:00,32.4,36.3,29.63,North,1,4.0,6.0,33,0.00,,,0.00,meteohub,2013-03-01 15:49:00,
2013-03-01 09:54:00,32.4,36.1,29.63,North,2,4.0,6.0,33,0.00,,,0.00,meteohub,2013-03-01 15:54:00,
2013-03-01 09:59:00,32.4,36.0,29.63,North,357,4.0,6.0,33,0.00,,,0.00,meteohub,2013-03-01 15:59:00,
2013-03-01 10:04:00,32.4,36.0,29.63,North,353,3.0,6.0,33,0.00,,,0.00,meteohub,2013-03-01 16:04:00,
2013-03-01 10:09:00,32.5,35.8,29.63,NW,310,4.0,6.0,33,0.00,,,0.00,meteohub,2013-03-01 16:09:00,
2013-03-01 10:15:00,32.5,35.6,29.63,WNW,286,4.0,6.0,33,0.00,,,0.00,meteohub,2013-03-01 16:15:00,
2013-03-01 10:20:00,32.5,35.4,29.63,North,349,4.0,5.0,33,0.00,,,0.00,meteohub,2013-03-01 16:20:00,
2013-03-01 10:25:00,32.5,35.4,29.63,North,353,0.0,5.0,33,0.00,,,0.00,meteohub,2013-03-01 16:25:00,
2013-03-01 10:30:00,32.5,35.2,29.63,North,353,3.0,5.0,33,0.00,,,0.00,meteohub,2013-03-01 16:30:00,
2013-03-01 10:35:00,32.7,35.2,29.63,WNW,297,6.0,6.0,33,0.00,,,0.00,meteohub,2013-03-01 16:35:00,
2013-03-01 10:40:00,32.7,35.6,29.63,NNW,343,3.0,6.0,33,0.00,,,0.00,meteohub,2013-03-01 16:40:00,
2013-03-01 10:45:00,32.7,35.6,29.63,NNE,16,4.0,6.0,33,0.00,,,0.00,meteohub,2013-03-01 16:45:00,
2013-03-01 10:50:00,32.7,35.6,29.63,NNW,346,4.0,6.0,33,0.00,,,0.00,meteohub,2013-03-01 16:50:00,
2013-03-01 10:55:00,32.9,35.4,29.63,NNW,342,4.0,6.0,33,0.00,,,0.00,meteohub,2013-03-01 16:55:00,
2013-03-01 11:00:00,32.9,35.2,29.63,NW,325,3.0,6.0,33,0.00,,,0.00,meteohub,2013-03-01 17:00:00,
2013-03-01 11:05:00,32.9,35.2,29.63,NNW,342,4.0,6.0,33,0.00,,,0.00,meteohub,2013-03-01 17:05:00,
2013-03-01 11:10:00,33.1,35.1,29.63,NNW,345,3.0,6.0,33,0.00,,,0.00,meteohub,2013-03-01 17:10:00,
2013-03-01 11:15:00,33.1,35.1,29.63,SSW,202,3.0,6.0,33,0.00,,,0.00,meteohub,2013-03-01 17:15:00,
2013-03-01 11:20:00,33.3,35.4,29.63,NW,317,3.0,6.0,33,0.00,,,0.00,meteohub,2013-03-01 17:20:00,
2013-03-01 11:26:00,33.4,35.8,29.63,NNW,328,3.0,6.0,33,0.00,,,0.00,meteohub,2013-03-01 17:26:00,
2013-03-01 11:31:00,33.4,35.6,29.63,North,0,4.0,6.0,33,0.00,,,0.00,meteohub,2013-03-01 17:31:00,
2013-03-01 11:36:00,33.4,35.6,29.63,North,353,4.0,6.0,33,0.00,,,0.00,meteohub,2013-03-01 17:36:00,
2013-03-01 11:41:00,33.6,35.4,29.63,NNE,25,4.0,6.0,33,0.00,,,0.00,meteohub,2013-03-01 17:41:00,
2013-03-01 11:46:00,33.6,35.8,29.63,West,275,5.0,6.0,33,0.00,,,0.00,meteohub,2013-03-01 17:46:00,
2013-03-01 11:51:00,33.4,36.7,29.63,North,0,6.0,6.0,33,0.00,,,0.00,meteohub,2013-03-01 17:51:00,
2013-03-01 11:56:00,33.4,37.6,29.63,North,5,5.0,6.0,33,0.04,,,0.04,meteohub,2013-03-01 17:56:00,
2013-03-01 12:01:00,33.4,37.9,29.63,North,8,5.0,6.0,33,0.04,,,0.04,meteohub,2013-03-01 18:01:00,
2013-03-01 12:06:00,33.4,37.8,29.60,NW,316,3.0,6.0,33,0.04,,,0.04,meteohub,2013-03-01 18:06:00,
2013-03-01 12:11:00,33.4,38.1,29.60,North,353,3.0,8.0,33,0.04,,,0.04,meteohub,2013-03-01 18:11:00,
2013-03-01 12:16:00,33.6,38.3,29.63,North,357,5.0,8.0,33,0.04,,,0.04,meteohub,2013-03-01 18:16:00,
2013-03-01 12:21:00,33.8,38.1,29.63,NW,318,5.0,8.0,33,0.04,,,0.04,meteohub,2013-03-01 18:21:00,
2013-03-01 12:27:00,33.6,38.5,29.63,NW,310,6.0,8.0,33,0.04,,,0.04,meteohub,2013-03-01 18:27:00,
2013-03-01 12:32:00,33.6,38.5,29.63,NNW,339,4.0,8.0,33,0.04,,,0.04,meteohub,2013-03-01 18:32:00,
2013-03-01 12:37:00,33.8,38.3,29.63,North,353,3.0,8.0,33,0.04,,,0.04,meteohub,2013-03-01 18:37:00,
2013-03-01 12:42:00,34.0,38.7,29.63,North,5,6.0,8.0,33,0.04,,,0.04,meteohub,2013-03-01 18:42:00,
2013-03-01 12:47:00,34.0,38.5,29.63,WNW,286,3.0,8.0,33,0.04,,,0.04,meteohub,2013-03-01 18:47:00,
2013-03-01 12:52:00,34.0,38.1,29.63,NW,326,4.0,8.0,33,0.04,,,0.04,meteohub,2013-03-01 18:52:00,
2013-03-01 12:57:00,34.0,38.5,29.63,NW,305,6.0,8.0,33,0.00,,,0.04,meteohub,2013-03-01 18:57:00,
2013-03-01 13:02:00,34.2,38.7,29.63,North,349,8.0,8.0,33,0.00,,,0.04,meteohub,2013-03-01 19:02:00,
2013-03-01 13:07:00,34.0,38.5,29.63,North,0,4.0,9.0,33,0.00,,,0.04,meteohub,2013-03-01 19:07:00,
2013-03-01 13:12:00,34.0,38.5,29.63,NNW,344,5.0,9.0,33,0.00,,,0.04,meteohub,2013-03-01 19:12:00,
2013-03-01 13:17:00,34.0,38.7,29.63,North,353,4.0,9.0,33,0.00,,,0.04,meteohub,2013-03-01 19:17:00,
2013-03-01 13:22:00,34.0,38.5,29.63,North,10,5.0,8.0,33,0.00,,,0.04,meteohub,2013-03-01 19:22:00,
2013-03-01 13:27:00,34.0,38.5,29.63,North,11,3.0,8.0,33,0.00,,,0.04,meteohub,2013-03-01 19:27:00,
2013-03-01 13:32:00,34.0,38.7,29.63,NNE,19,0.0,8.0,33,0.00,,,0.04,meteohub,2013-03-01 19:32:00,
2013-03-01 13:38:00,34.0,38.3,29.63,North,4,5.0,8.0,33,0.00,,,0.04,meteohub,2013-03-01 19:38:00,
2013-03-01 13:43:00,34.0,38.5,29.63,North,353,4.0,8.0,33,0.00,,,0.04,meteohub,2013-03-01 19:43:00,
2013-03-01 13:48:00,34.0,38.7,29.60,NW,312,3.0,8.0,33,0.00,,,0.04,meteohub,2013-03-01 19:48:00,
2013-03-01 13:53:00,34.0,37.6,29.60,North,357,6.0,8.0,32,0.00,,,0.04,meteohub,2013-03-01 19:53:00,
2013-03-01 13:58:00,34.0,37.6,29.60,North,4,4.0,6.0,32,0.00,,,0.04,meteohub,2013-03-01 19:58:00,
2013-03-01 14:03:00,34.0,37.6,29.60,NNW,346,4.0,8.0,32,0.00,,,0.04,meteohub,2013-03-01 20:03:00,
2013-03-01 14:08:00,34.0,37.6,29.60,North,353,5.0,8.0,32,0.00,,,0.04,meteohub,2013-03-01 20:08:00,
2013-03-01 14:13:00,34.0,37.4,29.60,North,3,5.0,8.0,32,0.00,,,0.04,meteohub,2013-03-01 20:13:00,
2013-03-01 14:18:00,34.0,37.6,29.60,North,0,6.0,8.0,32,0.00,,,0.04,meteohub,2013-03-01 20:18:00,
2013-03-01 14:24:00,34.3,37.6,29.60,North,353,3.0,8.0,32,0.00,,,0.04,meteohub,2013-03-01 20:24:00,
2013-03-01 14:29:00,34.3,37.4,29.60,NNW,335,4.0,8.0,32,0.00,,,0.04,meteohub,2013-03-01 20:29:00,
2013-03-01 14:34:00,34.5,37.4,29.60,NW,316,5.0,8.0,32,0.00,,,0.04,meteohub,2013-03-01 20:34:00,
2013-03-01 14:39:00,34.3,37.6,29.60,North,3,6.0,8.0,32,0.00,,,0.04,meteohub,2013-03-01 20:39:00,
2013-03-01 14:44:00,34.0,37.6,29.60,North,9,3.0,8.0,32,0.00,,,0.04,meteohub,2013-03-01 20:44:00,
2013-03-01 14:49:00,34.0,37.4,29.63,North,10,5.0,8.0,32,0.00,,,0.04,meteohub,2013-03-01 20:49:00,
2013-03-01 14:54:00,34.0,37.6,29.63,NW,326,4.0,8.0,32,0.00,,,0.04,meteohub,2013-03-01 20:54:00,
2013-03-01 14:59:00,34.2,37.4,29.63,North,353,3.0,8.0,32,0.00,,,0.04,meteohub,2013-03-01 20:59:00,
2013-03-01 15:04:00,34.3,37.2,29.63,NNW,339,5.0,8.0,32,0.00,,,0.04,meteohub,2013-03-01 21:04:00,
2013-03-01 15:09:00,34.5,37.0,29.63,North,357,4.0,6.0,32,0.00,,,0.04,meteohub,2013-03-01 21:09:00,
2013-03-01 15:14:00,34.7,37.4,29.63,North,1,4.0,8.0,32,0.00,,,0.04,meteohub,2013-03-01 21:14:00,
2013-03-01 15:19:00,34.7,37.4,29.63,NNW,327,6.0,8.0,32,0.00,,,0.04,meteohub,2013-03-01 21:19:00,
2013-03-01 15:24:00,34.5,37.2,29.63,North,7,4.0,8.0,32,0.00,,,0.04,meteohub,2013-03-01 21:24:00,
2013-03-01 15:30:00,34.5,37.0,29.63,North,0,4.0,8.0,32,0.00,,,0.04,meteohub,2013-03-01 21:30:00,
2013-03-01 15:35:00,34.3,37.4,29.63,NE,37,5.0,8.0,32,0.00,,,0.04,meteohub,2013-03-01 21:35:00,
2013-03-01 15:40:00,34.0,37.2,29.63,North,357,8.0,8.0,32,0.00,,,0.04,meteohub,2013-03-01 21:40:00,
2013-03-01 15:45:00,33.6,37.6,29.63,NW,325,6.0,10.0,33,0.00,,,0.04,meteohub,2013-03-01 21:45:00,
2013-03-01 15:50:00,33.3,37.0,29.63,North,9,5.0,10.0,32,0.00,,,0.04,meteohub,2013-03-01 21:50:00,
2013-03-01 15:55:00,33.3,37.2,29.63,NNE,12,4.0,10.0,32,0.00,,,0.04,meteohub,2013-03-01 21:55:00,
2013-03-01 16:00:00,33.4,37.0,29.63,NNE,16,4.0,10.0,32,0.00,,,0.04,meteohub,2013-03-01 22:00:00,
2013-03-01 16:05:00,33.6,37.6,29.60,North,7,4.0,10.0,33,0.00,,,0.04,meteohub,2013-03-01 22:05:00,
2013-03-01 16:10:00,33.6,37.0,29.60,North,11,6.0,10.0,32,0.00,,,0.04,meteohub,2013-03-01 22:10:00,
2013-03-01 16:15:00,33.4,37.0,29.60,North,10,8.0,9.0,32,0.00,,,0.04,meteohub,2013-03-01 22:15:00,
2013-03-01 16:20:00,33.3,37.6,29.63,NNW,345,4.0,9.0,33,0.00,,,0.04,meteohub,2013-03-01 22:20:00,
2013-03-01 16:25:00,33.3,37.6,29.63,NNW,343,5.0,8.0,33,0.00,,,0.04,meteohub,2013-03-01 22:25:00,
2013-03-01 16:30:00,33.3,37.0,29.63,North,357,3.0,8.0,32,0.00,,,0.04,meteohub,2013-03-01 22:30:00,
2013-03-01 16:36:00,33.4,37.0,29.63,North,5,3.0,7.0,32,0.00,,,0.04,meteohub,2013-03-01 22:36:00,
2013-03-01 16:41:00,33.3,37.6,29.63,North,11,5.0,9.0,33,0.00,,,0.04,meteohub,2013-03-01 22:41:00,
2013-03-01 16:46:00,33.1,37.6,29.63,NNE,13,5.0,10.0,33,0.00,,,0.04,meteohub,2013-03-01 22:46:00,
2013-03-01 16:51:00,33.3,37.0,29.63,North,353,8.0,10.0,32,0.00,,,0.04,meteohub,2013-03-01 22:51:00,
2013-03-01 16:56:00,33.3,37.0,29.63,North,357,6.0,10.0,32,0.00,,,0.04,meteohub,2013-03-01 22:56:00,
2013-03-01 17:01:00,33.3,37.6,29.63,North,8,5.0,9.0,33,0.00,,,0.04,meteohub,2013-03-01 23:01:00,
2013-03-01 17:06:00,33.3,37.2,29.63,North,3,4.0,9.0,32,0.00,,,0.04,meteohub,2013-03-01 23:06:00,
2013-03-01 17:11:00,33.3,37.6,29.63,NNW,348,6.0,8.0,32,0.00,,,0.04,meteohub,2013-03-01 23:11:00,
2013-03-01 17:16:00,33.3,37.6,29.63,North,0,6.0,8.0,32,0.00,,,0.04,meteohub,2013-03-01 23:16:00,
2013-03-01 17:22:00,33.1,37.2,29.66,North,357,4.0,9.0,32,0.00,,,0.04,meteohub,2013-03-01 23:22:00,
2013-03-01 17:27:00,32.9,37.0,29.66,North,357,5.0,9.0,32,0.00,,,0.04,meteohub,2013-03-01 23:27:00,
2013-03-01 17:32:00,32.9,37.6,29.66,NNW,339,6.0,8.0,32,0.00,,,0.04,meteohub,2013-03-01 23:32:00,
2013-03-01 17:37:00,32.7,37.4,29.66,NNE,13,4.0,8.0,32,0.00,,,0.04,meteohub,2013-03-01 23:37:00,
2013-03-01 17:42:00,32.5,37.4,29.66,NNE,14,6.0,8.0,32,0.00,,,0.04,meteohub,2013-03-01 23:42:00,
2013-03-01 17:47:00,32.5,37.4,29.66,North,0,6.0,9.0,32,0.00,,,0.04,meteohub,2013-03-01 23:47:00,
2013-03-01 17:52:00,32.4,37.6,29.66,North,357,5.0,9.0,32,0.00,,,0.04,meteohub,2013-03-01 23:52:00,
2013-03-01 17:57:00,32.2,37.6,29.66,NNE,29,6.0,9.0,32,0.00,,,0.04,meteohub,2013-03-01 23:57:00,
2013-03-01 18:02:00,32.0,37.4,29.66,North,0,6.0,8.0,32,0.00,,,0.04,meteohub,2013-03-02 00:02:00,
2013-03-01 18:07:00,31.8,37.6,29.66,NNW,342,4.0,8.0,32,0.00,,,0.04,meteohub,2013-03-02 00:07:00,
2013-03-01 18:12:00,31.8,38.1,29.66,North,353,5.0,8.0,32,0.00,,,0.04,meteohub,2013-03-02 00:12:00,
2013-03-01 18:18:00,31.8,37.9,29.66,North,3,8.0,8.0,32,0.00,,,0.04,meteohub,2013-03-02 00:18:00,
2013-03-01 18:23:00,31.8,37.8,29.66,North,350,8.0,9.0,32,0.00,,,0.04,meteohub,2013-03-02 00:23:00,
2013-03-01 18:28:00,31.8,37.8,29.66,North,357,4.0,9.0,32,0.00,,,0.04,meteohub,2013-03-02 00:28:00,
2013-03-01 18:33:00,31.8,38.1,29.66,North,0,6.0,9.0,32,0.00,,,0.04,meteohub,2013-03-02 00:33:00,
2013-03-01 18:38:00,31.8,37.9,29.66,North,9,7.0,10.0,32,0.00,,,0.04,meteohub,2013-03-02 00:38:00,
2013-03-01 18:43:00,31.6,37.8,29.66,North,4,6.0,10.0,32,0.00,,,0.04,meteohub,2013-03-02 00:43:00,
2013-03-01 18:48:00,31.5,38.1,29.66,North,0,4.0,10.0,32,0.00,,,0.04,meteohub,2013-03-02 00:48:00,
2013-03-01 18:53:00,31.5,38.3,29.66,North,353,8.0,9.0,32,0.00,,,0.04,meteohub,2013-03-02 00:53:00,
2013-03-01 18:58:00,31.3,37.9,29.66,North,0,6.0,9.0,32,0.00,,,0.04,meteohub,2013-03-02 00:58:00,
2013-03-01 19:03:00,31.3,37.8,29.69,NNW,345,5.0,9.0,32,0.00,,,0.04,meteohub,2013-03-02 01:03:00,
2013-03-01 19:08:00,31.3,38.1,29.69,NNW,335,4.0,9.0,32,0.00,,,0.04,meteohub,2013-03-02 01:08:00,
2013-03-01 19:14:00,31.3,37.9,29.69,North,11,4.0,9.0,32,0.00,,,0.04,meteohub,2013-03-02 01:14:00,
2013-03-01 19:19:00,31.3,37.8,29.69,NNW,340,6.0,7.0,32,0.00,,,0.04,meteohub,2013-03-02 01:19:00,
2013-03-01 19:24:00,31.1,37.6,29.69,North,11,6.0,8.0,32,0.00,,,0.04,meteohub,2013-03-02 01:24:00,
2013-03-01 19:29:00,31.1,37.6,29.69,North,2,4.0,8.0,32,0.00,,,0.04,meteohub,2013-03-02 01:29:00,
2013-03-01 19:34:00,31.1,37.4,29.69,North,9,5.0,8.0,32,0.00,,,0.04,meteohub,2013-03-02 01:34:00,
2013-03-01 19:39:00,31.1,37.2,29.69,NNE,19,5.0,8.0,32,0.00,,,0.04,meteohub,2013-03-02 01:39:00,
2013-03-01 19:44:00,31.1,37.0,29.69,NNW,337,6.0,11.0,32,0.00,,,0.04,meteohub,2013-03-02 01:44:00,
2013-03-01 19:49:00,31.1,37.6,29.69,NNE,24,6.0,11.0,33,0.00,,,0.04,meteohub,2013-03-02 01:49:00,
2013-03-01 19:54:00,30.9,37.6,29.69,North,4,4.0,11.0,33,0.00,,,0.04,meteohub,2013-03-02 01:54:00,
2013-03-01 19:59:00,30.7,37.6,29.69,North,353,3.0,9.0,33,0.00,,,0.04,meteohub,2013-03-02 01:59:00,
2013-03-01 20:04:00,30.7,37.6,29.69,North,357,4.0,9.0,33,0.00,,,0.04,meteohub,2013-03-02 02:04:00,
2013-03-01 20:09:00,30.6,37.2,29.69,NNE,22,4.0,9.0,32,0.00,,,0.04,meteohub,2013-03-02 02:09:00,
2013-03-01 20:14:00,30.6,37.2,29.69,North,7,4.0,9.0,32,0.00,,,0.04,meteohub,2013-03-02 02:14:00,
2013-03-01 20:20:00,30.6,37.2,29.69,NNE,25,4.0,8.0,32,0.00,,,0.04,meteohub,2013-03-02 02:20:00,
2013-03-01 20:25:00,30.6,37.0,29.69,NNE,17,4.0,6.0,32,0.00,,,0.04,meteohub,2013-03-02 02:25:00,
2013-03-01 20:30:00,30.6,37.6,29.69,NNW,348,6.0,6.0,33,0.00,,,0.04,meteohub,2013-03-02 02:30:00,
2013-03-01 20:35:00,30.6,37.6,29.69,North,357,7.0,11.0,33,0.00,,,0.04,meteohub,2013-03-02 02:35:00,
2013-03-01 20:40:00,30.6,37.6,29.69,NNE,18,6.0,11.0,33,0.00,,,0.04,meteohub,2013-03-02 02:40:00,
2013-03-01 20:45:00,30.6,37.4,29.69,North,6,5.0,11.0,33,0.00,,,0.04,meteohub,2013-03-02 02:45:00,
2013-03-01 20:50:00,30.6,37.2,29.69,North,0,4.0,11.0,33,0.00,,,0.04,meteohub,2013-03-02 02:50:00,
2013-03-01 20:55:00,30.4,37.2,29.69,NNE,15,4.0,8.0,33,0.00,,,0.04,meteohub,2013-03-02 02:55:00,
2013-03-01 21:00:00,30.6,37.2,29.69,NNE,20,6.0,8.0,33,0.00,,,0.04,meteohub,2013-03-02 03:00:00,
2013-03-01 21:05:00,30.6,37.4,29.69,North,357,8.0,8.0,33,0.00,,,0.04,meteohub,2013-03-02 03:05:00,
2013-03-01 21:11:00,30.6,37.4,29.69,NE,41,4.0,9.0,33,0.00,,,0.04,meteohub,2013-03-02 03:11:00,
2013-03-01 21:16:00,30.6,37.2,29.69,North,353,5.0,9.0,33,0.00,,,0.04,meteohub,2013-03-02 03:16:00,
2013-03-01 21:21:00,30.6,37.2,29.69,North,6,8.0,10.0,33,0.00,,,0.04,meteohub,2013-03-02 03:21:00,
2013-03-01 21:26:00,30.7,37.2,29.69,North,357,6.0,11.0,33,0.00,,,0.04,meteohub,2013-03-02 03:26:00,
2013-03-01 21:31:00,30.7,37.2,29.69,North,0,8.0,11.0,33,0.00,,,0.04,meteohub,2013-03-02 03:31:00,
2013-03-01 21:36:00,30.7,37.6,29.69,North,0,5.0,11.0,33,0.00,,,0.04,meteohub,2013-03-02 03:36:00,
2013-03-01 21:41:00,30.6,37.6,29.69,North,357,6.0,11.0,33,0.00,,,0.04,meteohub,2013-03-02 03:41:00,
2013-03-01 21:46:00,30.6,37.6,29.69,NNW,331,7.0,11.0,33,0.00,,,0.04,meteohub,2013-03-02 03:46:00,
2013-03-01 21:51:00,30.6,37.6,29.69,North,353,6.0,11.0,33,0.00,,,0.04,meteohub,2013-03-02 03:51:00,
2013-03-01 21:57:00,30.6,37.0,29.69,WNW,301,4.0,11.0,32,0.00,,,0.04,meteohub,2013-03-02 03:57:00,
2013-03-01 22:02:00,30.6,37.0,29.69,North,0,4.0,8.0,32,0.00,,,0.04,meteohub,2013-03-02 04:02:00,
2013-03-01 22:07:00,30.4,37.6,29.69,North,357,6.0,10.0,33,0.00,,,0.04,meteohub,2013-03-02 04:07:00,
2013-03-01 22:12:00,30.6,37.0,29.69,NNW,336,8.0,10.0,32,0.00,,,0.04,meteohub,2013-03-02 04:12:00,
2013-03-01 22:17:00,30.4,37.0,29.69,North,1,8.0,10.0,32,0.00,,,0.04,meteohub,2013-03-02 04:17:00,
2013-03-01 22:22:00,30.4,37.6,29.69,NNW,343,6.0,9.0,33,0.00,,,0.04,meteohub,2013-03-02 04:22:00,
2013-03-01 22:27:00,30.4,37.2,29.69,NNE,17,5.0,9.0,32,0.00,,,0.04,meteohub,2013-03-02 04:27:00,
2013-03-01 22:32:00,30.4,37.2,29.69,North,357,5.0,9.0,32,0.00,,,0.04,meteohub,2013-03-02 04:32:00,
2013-03-01 22:37:00,30.4,37.0,29.69,North,0,5.0,11.0,32,0.00,,,0.04,meteohub,2013-03-02 04:37:00,
2013-03-01 22:42:00,30.2,37.2,29.69,North,357,6.0,11.0,32,0.00,,,0.04,meteohub,2013-03-02 04:42:00,
2013-03-01 22:47:00,30.2,37.2,29.69,NE,37,6.0,11.0,32,0.00,,,0.04,meteohub,2013-03-02 04:47:00,
2013-03-01 22:53:00,30.2,37.2,29.69,North,0,9.0,10.0,32,0.00,,,0.04,meteohub,2013-03-02 04:53:00,
2013-03-01 22:58:00,30.2,37.4,29.69,NNW,345,4.0,10.0,32,0.00,,,0.04,meteohub,2013-03-02 04:58:00,
2013-03-01 23:00:00,30.2,37.6,29.69,NNE,28,4.0,10.0,32,0.00,,,0.04,meteohub,2013-03-02 05:00:00,
2013-03-01 23:02:00,30.2,37.6,29.69,North,353,4.0,10.0,32,0.00,,,0.04,meteohub,2013-03-02 05:02:00,
2013-03-01 23:03:00,30.2,37.4,29.69,North,357,6.0,10.0,32,0.00,,,0.04,meteohub,2013-03-02 05:03:00,
2013-03-01 23:08:00,30.2,37.4,29.69,North,357,9.0,10.0,32,0.00,,,0.04,meteohub,2013-03-02 05:08:00,
2013-03-01 23:13:00,30.0,37.2,29.69,North,9,5.0,12.0,32,0.00,,,0.04,meteohub,2013-03-02 05:13:00,
2013-03-01 23:18:00,30.0,37.4,29.69,North,2,6.0,12.0,32,0.00,,,0.04,meteohub,2013-03-02 05:18:00,
2013-03-01 23:23:00,30.0,37.6,29.69,North,5,9.0,12.0,32,0.00,,,0.04,meteohub,2013-03-02 05:23:00,
2013-03-01 23:28:00,30.0,37.6,29.69,NNW,341,7.0,9.0,32,0.00,,,0.04,meteohub,2013-03-02 05:28:00,
2013-03-01 23:33:00,30.0,37.4,29.69,North,11,5.0,11.0,32,0.00,,,0.04,meteohub,2013-03-02 05:33:00,
2013-03-01 23:38:00,30.0,37.4,29.69,NNE,21,9.0,11.0,32,0.00,,,0.04,meteohub,2013-03-02 05:38:00,
2013-03-01 23:43:00,30.0,37.6,29.69,North,0,4.0,11.0,32,0.00,,,0.04,meteohub,2013-03-02 05:43:00,
2013-03-01 23:49:00,29.8,37.6,29.69,NNE,14,6.0,10.0,32,0.00,,,0.04,meteohub,2013-03-02 05:49:00,
2013-03-01 23:54:00,29.8,37.6,29.69,North,0,4.0,10.0,32,0.00,,,0.04,meteohub,2013-03-02 05:54:00,
2013-03-01 23:59:00,29.8,37.4,29.69,WNW,301,5.0,9.0,32,0.00,,,0.04,meteohub,2013-03-02 05:59:00,